Flag for United Kingdom Weather past 2 weeks in Eastbourne, England, United Kingdom

Now
59 °F

Cool.


Feels Like: 59 °F
Forecast: 46 / 58 °F
Wind: 5 mph from West

Location: Herstmonceux

Current Time: May 24, 2015 at 7:15:34 PM

Latest Report: May 24, 2015 at 6:00 PM


Visibility: 14 mi

Pressure: 30.08 "Hg

Humidity: 85%

Dew point: 54 °F

Location of EastbourneLocation

Historic Weather in Eastbourne — Graph

°F

Eastbourne temperature yesterday

Maximum temperature yesterday: 63 °F (at 1:00 PM)
Minimum temperature yesterday: 51 °F (at 11:00 PM)
Average temperature yesterday: 58 °F

Past Weeks' High & Low Weather Summary

 TemperatureHumidityPressure
High66 °F (May 16, 4:00 PM)100% (May 10, 12:00 AM)30.36 "Hg (May 10, 12:00 AM)
Low39 °F (May 13, 6:00 AM)44% (May 16, 5:00 PM)29.65 "Hg (May 19, 3:00 AM)
Average53 °F82%30.11 "Hg
* Reported May 9 6:00 PM — May 24 6:00 PM, Eastbourne, Weather by CustomWeather, © 2015

Note: Actual official high and low records may vary slightly from our data, if they occured in-between our weather recording intervals... More about our weather records

Advertising

Eastbourne weather history for previous 24 hours

 ConditionsComfort  
Time TempWeatherWind HumidityBarometerVisibility
6:00 PM
Sun, May 24
59 °FCool.5 mph85%30.08 "Hg14 mi
5:00 PM59 °FCool.5 mph80%30.09 "Hg9 mi
4:00 PM60 °FCool.7 mph79%30.10 "Hg10 mi
3:00 PM60 °FCool.6 mph75%30.11 "Hg14 mi
2:00 PM60 °FCool.8 mph75%30.11 "Hg11 mi
1:00 PM61 °FCool.8 mph77%30.12 "Hg10 mi
12:00 PM60 °FCool.8 mph69%30.13 "Hg12 mi
11:00 AM60 °FCool.8 mph63%30.15 "Hg11 mi
10:00 AM57 °FCool.6 mph72%30.15 "Hg11 mi
9:00 AM54 °FCool.5 mph86%30.16 "Hg7 mi
8:00 AM51 °FCool.1 mph91%30.17 "Hg6 mi
7:00 AM49 °FCool.1 mph93%30.17 "Hg6 mi
6:00 AM48 °FCool.No wind92%30.17 "Hg7 mi
5:00 AM47 °FCool.2 mph94%30.17 "Hg7 mi
3:00 AM49 °FCool.2 mph90%30.20 "Hg8 mi
2:00 AM49 °FCool.1 mph87%30.21 "Hg10 mi
1:00 AM50 °FCool.2 mph83%30.23 "Hg9 mi
12:00 AM51 °FCool.2 mph82%30.24 "Hg10 mi
11:00 PM
Sat, May 23
51 °FCool.3 mph81%30.24 "Hg9 mi
9:00 PM54 °FCool.3 mph71%30.24 "Hg12 mi
8:00 PM56 °FCool.3 mph63%30.24 "Hg12 mi
7:00 PM58 °FCool.5 mph63%30.24 "Hg14 mi
Weather by CustomWeather, © 2015

See weather overviewHow to use our weather pages